TimeCST,TemperatureF,Dew PointF,Humidity,Sea Level PressureIn,VisibilityMPH,Wind Direction,Wind SpeedMPH,Gust SpeedMPH,PrecipitationIn,Events,Conditions,WindDirDegrees,DateUTC
12:53 AM,42.1,39.9,92,30.28,10.0,Calm,Calm,-,N/A,,Clear,0,2012-11-19 06:53:00
1:53 AM,41.0,39.9,96,30.28,10.0,Calm,Calm,-,N/A,,Clear,0,2012-11-19 07:53:00
2:53 AM,39.9,39.0,97,30.26,10.0,Calm,Calm,-,0.01,,Clear,0,2012-11-19 08:53:00
3:53 AM,39.0,37.9,96,30.25,10.0,Calm,Calm,-,N/A,,Clear,0,2012-11-19 09:53:00
4:53 AM,39.0,37.9,96,30.25,10.0,Calm,Calm,-,N/A,,Clear,0,2012-11-19 10:53:00
5:53 AM,39.0,37.0,93,30.27,10.0,Calm,Calm,-,N/A,,Clear,0,2012-11-19 11:53:00
6:53 AM,39.9,39.0,97,30.28,10.0,Calm,Calm,-,N/A,,Clear,0,2012-11-19 12:53:00
7:53 AM,48.9,45.0,86,30.28,10.0,North,4.6,-,N/A,,Clear,10,2012-11-19 13:53:00
8:53 AM,57.0,46.9,69,30.29,10.0,Calm,Calm,-,N/A,,Clear,0,2012-11-19 14:53:00
9:53 AM,64.0,46.9,54,30.30,10.0,Calm,Calm,-,N/A,,Clear,0,2012-11-19 15:53:00
10:53 AM,69.1,48.0,47,30.28,10.0,NNE,5.8,-,N/A,,Clear,30,2012-11-19 16:53:00
11:53 AM,70.0,48.0,46,30.25,10.0,North,5.8,-,N/A,,Clear,350,2012-11-19 17:53:00
12:53 PM,73.0,48.9,42,30.22,10.0,Variable,4.6,-,N/A,,Clear,0,2012-11-19 18:53:00
1:53 PM,72.0,48.9,44,30.19,10.0,Calm,Calm,-,N/A,,Clear,0,2012-11-19 19:53:00
2:53 PM,72.0,48.9,44,30.19,10.0,Calm,Calm,-,N/A,,Clear,0,2012-11-19 20:53:00
3:53 PM,71.1,50.0,47,30.17,10.0,Calm,Calm,-,N/A,,Clear,0,2012-11-19 21:53:00
4:53 PM,63.0,50.0,63,30.17,10.0,Calm,Calm,-,N/A,,Clear,0,2012-11-19 22:53:00
5:53 PM,55.9,51.1,84,30.18,10.0,Calm,Calm,-,N/A,,Clear,0,2012-11-19 23:53:00
6:53 PM,54.0,50.0,86,30.20,10.0,Calm,Calm,-,N/A,,Clear,0,2012-11-20 00:53:00
7:53 PM,52.0,48.9,89,30.20,10.0,Calm,Calm,-,N/A,,Clear,0,2012-11-20 01:53:00
8:53 PM,50.0,48.0,93,30.20,10.0,Calm,Calm,-,N/A,,Clear,0,2012-11-20 02:53:00
9:53 PM,48.9,46.9,93,30.20,10.0,Calm,Calm,-,N/A,,Clear,0,2012-11-20 03:53:00
10:53 PM,48.0,46.0,93,30.20,10.0,NNE,3.5,-,N/A,,Clear,20,2012-11-20 04:53:00
11:53 PM,48.0,46.0,93,30.18,10.0,Calm,Calm,-,N/A,,Clear,0,2012-11-20 05:53:00